Time,TemperatureF,DewpointF,PressureIn,WindDirection,WindDirectionDegrees,WindSpeedMPH,WindSpeedGustMPH,Humidity,HourlyPrecipIn,Conditions,Clouds,dailyrainin,SoftwareType,DateUTC
2013-03-28 00:03:00,53.8,-99.9,25.01,South,175,3.0,4.9,-999,0.00,,,-99.99,FreeWX 2.04,2013-03-28 06:03:00,
2013-03-28 00:08:00,53.8,-99.9,25.01,SSE,148,2.0,5.8,-999,0.00,,,-99.99,FreeWX 2.04,2013-03-28 06:08:00,
2013-03-28 00:13:00,53.6,-99.9,25.01,SE,143,2.0,4.9,-999,0.00,,,-99.99,FreeWX 2.04,2013-03-28 06:13:00,
2013-03-28 00:18:00,52.0,-99.9,25.01,SE,134,2.0,5.4,-999,0.00,,,-99.99,FreeWX 2.04,2013-03-28 06:18:00,
2013-03-28 00:23:00,52.0,-99.9,25.01,ESE,103,3.0,6.7,-999,0.00,,,-99.99,FreeWX 2.04,2013-03-28 06:23:00,
2013-03-28 00:28:00,50.4,-99.9,25.01,ENE,64,4.0,4.9,-999,0.00,,,-99.99,FreeWX 2.04,2013-03-28 06:28:00,
2013-03-28 00:33:00,50.7,-99.9,25.01,NE,46,4.0,8.3,-999,0.00,,,-99.99,FreeWX 2.04,2013-03-28 06:33:00,
2013-03-28 00:38:00,50.2,-99.9,25.01,NNE,32,3.0,4.5,-999,0.00,,,-99.99,FreeWX 2.04,2013-03-28 06:38:00,
2013-03-28 00:43:00,48.9,-99.9,25.01,NNE,30,2.0,4.5,-999,0.00,,,-99.99,FreeWX 2.04,2013-03-28 06:43:00,
2013-03-28 00:48:00,48.7,-99.9,25.01,NNE,30,2.0,4.5,-999,0.00,,,-99.99,FreeWX 2.04,2013-03-28 06:48:00,
2013-03-28 00:53:00,50.5,-99.9,25.01,NNE,30,3.0,5.8,-999,0.00,,,-99.99,FreeWX 2.04,2013-03-28 06:53:00,
2013-03-28 00:58:00,49.5,-99.9,25.01,NNE,29,3.0,4.5,-999,0.00,,,-99.99,FreeWX 2.04,2013-03-28 06:58:00,
2013-03-28 01:03:00,50.9,-99.9,25.01,NNE,28,3.0,6.7,-999,0.00,,,-99.99,FreeWX 2.04,2013-03-28 07:03:00,
2013-03-28 01:08:00,51.1,-99.9,25.01,NNE,26,4.0,5.4,-999,0.00,,,-99.99,FreeWX 2.04,2013-03-28 07:08:00,
2013-03-28 01:13:00,48.6,-99.9,25.01,NNE,25,3.0,5.8,-999,0.00,,,-99.99,FreeWX 2.04,2013-03-28 07:13:00,
2013-03-28 01:18:00,48.2,-99.9,25.01,NNE,25,3.0,5.8,-999,0.00,,,-99.99,FreeWX 2.04,2013-03-28 07:18:00,
2013-03-28 01:23:00,47.3,-99.9,25.01,NNE,25,2.0,3.6,-999,0.00,,,-99.99,FreeWX 2.04,2013-03-28 07:23:00,
2013-03-28 01:28:00,46.8,-99.9,25.01,NNE,25,1.0,3.1,-999,0.00,,,-99.99,FreeWX 2.04,2013-03-28 07:28:00,
2013-03-28 01:33:00,47.3,-99.9,25.01,North,-999,0.0,3.1,-999,0.00,,,-99.99,FreeWX 2.04,2013-03-28 07:33:00,
2013-03-28 01:38:00,47.5,-99.9,25.01,North,-999,0.0,2.7,-999,0.00,,,-99.99,FreeWX 2.04,2013-03-28 07:38:00,
2013-03-28 01:43:00,47.8,-99.9,25.01,North,-999,0.0,0.0,-999,0.00,,,-99.99,FreeWX 2.04,2013-03-28 07:43:00,
2013-03-28 01:48:00,48.0,-99.9,25.01,North,-999,0.0,4.0,-999,0.00,,,-99.99,FreeWX 2.04,2013-03-28 07:48:00,
2013-03-28 01:53:00,47.3,-99.9,25.01,NNE,25,1.0,3.1,-999,0.00,,,-99.99,FreeWX 2.04,2013-03-28 07:53:00,
2013-03-28 01:58:00,47.3,-99.9,25.01,North,8,2.0,9.2,-999,0.00,,,-99.99,FreeWX 2.04,2013-03-28 07:58:00,
2013-03-28 02:03:00,47.1,-99.9,25.01,NNW,332,6.0,10.1,-999,0.00,,,-99.99,FreeWX 2.04,2013-03-28 08:03:00,
2013-03-28 02:08:00,47.3,-99.9,25.04,NW,323,7.0,9.6,-999,0.00,,,-99.99,FreeWX 2.04,2013-03-28 08:08:00,
2013-03-28 02:13:00,46.8,-99.9,25.04,NNW,340,7.0,7.8,-999,0.00,,,-99.99,FreeWX 2.04,2013-03-28 08:13:00,
2013-03-28 02:18:00,46.6,-99.9,25.04,North,355,5.0,7.8,-999,0.00,,,-99.99,FreeWX 2.04,2013-03-28 08:18:00,
2013-03-28 02:23:00,47.7,-99.9,25.04,North,351,5.0,7.8,-999,0.00,,,-99.99,FreeWX 2.04,2013-03-28 08:23:00,
2013-03-28 02:28:00,47.7,-99.9,25.04,NNW,343,6.0,8.7,-999,0.00,,,-99.99,FreeWX 2.04,2013-03-28 08:28:00,
2013-03-28 02:33:00,47.3,-99.9,25.04,NNW,343,6.0,8.7,-999,0.00,,,-99.99,FreeWX 2.04,2013-03-28 08:33:00,
2013-03-28 02:38:00,47.3,-99.9,25.04,NNW,347,6.0,8.7,-999,0.00,,,-99.99,FreeWX 2.04,2013-03-28 08:38:00,
2013-03-28 02:43:00,47.5,-99.9,25.04,NNW,341,6.0,8.7,-999,0.00,,,-99.99,FreeWX 2.04,2013-03-28 08:43:00,
2013-03-28 02:48:00,47.8,-99.9,25.04,NNW,343,6.0,9.6,-999,0.00,,,-99.99,FreeWX 2.04,2013-03-28 08:48:00,
2013-03-28 02:54:00,47.5,-99.9,25.04,NNW,345,6.0,6.9,-999,0.00,,,-99.99,FreeWX 2.04,2013-03-28 08:54:00,
2013-03-28 02:59:00,48.0,-99.9,25.04,NNW,340,5.0,8.7,-999,0.00,,,-99.99,FreeWX 2.04,2013-03-28 08:59:00,
2013-03-28 03:09:00,47.7,-99.9,25.01,North,8,6.0,11.2,-999,0.00,,,-99.99,FreeWX 2.04,2013-03-28 09:09:00,
2013-03-28 03:14:00,47.8,-99.9,25.01,NNE,16,4.0,10.1,-999,0.00,,,-99.99,FreeWX 2.04,2013-03-28 09:14:00,
2013-03-28 03:19:00,48.6,-99.9,25.01,North,359,6.0,9.6,-999,0.00,,,-99.99,FreeWX 2.04,2013-03-28 09:19:00,
2013-03-28 03:24:00,48.7,-99.9,25.01,NNW,348,8.0,13.4,-999,0.00,,,-99.99,FreeWX 2.04,2013-03-28 09:24:00,
2013-03-28 03:29:00,48.2,-99.9,25.01,North,357,7.0,13.0,-999,0.00,,,-99.99,FreeWX 2.04,2013-03-28 09:29:00,
2013-03-28 03:34:00,47.5,-99.9,25.01,NNE,17,4.0,5.4,-999,0.00,,,-99.99,FreeWX 2.04,2013-03-28 09:34:00,
2013-03-28 03:39:00,48.0,-99.9,25.04,North,10,4.0,11.0,-999,0.00,,,-99.99,FreeWX 2.04,2013-03-28 09:39:00,
2013-03-28 03:44:00,48.7,-99.9,25.04,NNW,347,7.0,10.5,-999,0.00,,,-99.99,FreeWX 2.04,2013-03-28 09:44:00,
2013-03-28 03:49:00,48.6,-99.9,25.04,NNW,336,6.0,9.2,-999,0.00,,,-99.99,FreeWX 2.04,2013-03-28 09:49:00,
2013-03-28 03:54:00,48.6,-99.9,25.04,NNW,332,5.0,7.4,-999,0.00,,,-99.99,FreeWX 2.04,2013-03-28 09:54:00,
2013-03-28 03:59:00,48.2,-99.9,25.04,NNW,336,5.0,6.9,-999,0.00,,,-99.99,FreeWX 2.04,2013-03-28 09:59:00,
2013-03-28 04:04:00,48.0,-99.9,25.04,NNW,343,6.0,11.0,-999,0.00,,,-99.99,FreeWX 2.04,2013-03-28 10:04:00,
2013-03-28 04:09:00,47.8,-4.0,25.04,NNW,344,8.0,11.6,11,0.00,,,-99.99,FreeWX 2.04,2013-03-28 10:09:00,
2013-03-28 04:14:00,47.7,-4.2,25.04,NNW,343,8.0,13.9,11,0.00,,,-99.99,FreeWX 2.04,2013-03-28 10:14:00,
2013-03-28 04:19:00,47.7,-4.2,25.04,NNW,346,7.0,8.7,11,0.00,,,-99.99,FreeWX 2.04,2013-03-28 10:19:00,
2013-03-28 04:24:00,47.7,-4.2,25.04,NNW,345,6.0,8.7,11,0.00,,,-99.99,FreeWX 2.04,2013-03-28 10:24:00,
2013-03-28 04:29:00,48.0,-4.0,25.04,NNW,345,6.0,9.2,11,0.00,,,-99.99,FreeWX 2.04,2013-03-28 10:29:00,
2013-03-28 04:34:00,48.0,-4.0,25.04,North,351,6.0,9.2,11,0.00,,,-99.99,FreeWX 2.04,2013-03-28 10:34:00,
2013-03-28 04:39:00,48.0,-4.0,25.04,NNW,347,6.0,6.9,11,0.00,,,-99.99,FreeWX 2.04,2013-03-28 10:39:00,
2013-03-28 04:44:00,47.3,-4.5,25.04,NNW,347,4.0,5.8,11,0.00,,,-99.99,FreeWX 2.04,2013-03-28 10:44:00,
2013-03-28 04:49:00,47.3,-2.7,25.04,North,1,4.0,5.4,12,0.00,,,-99.99,FreeWX 2.04,2013-03-28 10:49:00,
2013-03-28 04:54:00,47.3,-4.5,25.04,North,0,5.0,8.3,11,0.00,,,-99.99,FreeWX 2.04,2013-03-28 10:54:00,
2013-03-28 04:59:00,46.8,-3.1,25.04,North,1,5.0,7.8,12,0.00,,,-99.99,FreeWX 2.04,2013-03-28 10:59:00,
2013-03-28 05:04:00,45.9,-3.8,25.04,NNE,16,4.0,5.4,12,0.00,,,-99.99,FreeWX 2.04,2013-03-28 11:04:00,
2013-03-28 05:09:00,45.3,-4.2,25.04,NNE,21,2.0,3.1,12,0.00,,,-99.99,FreeWX 2.04,2013-03-28 11:09:00,
2013-03-28 05:14:00,46.4,-3.5,25.04,NNE,13,2.0,6.7,12,0.00,,,-99.99,FreeWX 2.04,2013-03-28 11:14:00,
2013-03-28 05:19:00,46.9,-2.9,25.04,North,359,4.0,8.3,12,0.00,,,-99.99,FreeWX 2.04,2013-03-28 11:19:00,
2013-03-28 05:24:00,46.6,-3.3,25.04,North,356,5.0,8.7,12,0.00,,,-99.99,FreeWX 2.04,2013-03-28 11:24:00,
2013-03-28 05:29:00,46.2,-3.5,25.04,North,9,5.0,6.9,12,0.00,,,-99.99,FreeWX 2.04,2013-03-28 11:29:00,
2013-03-28 05:34:00,45.5,-4.2,25.04,North,5,5.0,7.4,12,0.00,,,-99.99,FreeWX 2.04,2013-03-28 11:34:00,
2013-03-28 05:39:00,45.1,-4.4,25.04,North,357,6.0,7.8,12,0.00,,,-99.99,FreeWX 2.04,2013-03-28 11:39:00,
2013-03-28 05:44:00,46.0,-3.6,25.04,North,359,6.0,8.3,12,0.00,,,-99.99,FreeWX 2.04,2013-03-28 11:44:00,
2013-03-28 05:49:00,44.4,-4.9,25.04,North,10,5.0,8.7,12,0.00,,,-99.99,FreeWX 2.04,2013-03-28 11:49:00,
2013-03-28 05:54:00,44.1,-5.3,25.04,NNE,32,4.0,6.7,12,0.00,,,-99.99,FreeWX 2.04,2013-03-28 11:54:00,
2013-03-28 05:59:00,44.1,-5.3,25.04,NE,47,4.0,6.7,12,0.00,,,-99.99,FreeWX 2.04,2013-03-28 11:59:00,
2013-03-28 06:04:00,44.2,-0.4,25.04,NE,55,3.0,4.9,15,0.00,,,-99.99,FreeWX 2.04,2013-03-28 12:04:00,
2013-03-28 06:09:00,44.8,0.0,25.04,NE,55,4.0,6.7,15,0.00,,,-99.99,FreeWX 2.04,2013-03-28 12:09:00,
2013-03-28 06:14:00,45.1,-4.4,25.04,NE,43,4.0,7.8,12,0.00,,,-99.99,FreeWX 2.04,2013-03-28 12:14:00,
2013-03-28 06:19:00,46.0,-3.6,25.04,NNE,28,4.0,7.4,12,0.00,,,-99.99,FreeWX 2.04,2013-03-28 12:19:00,
2013-03-28 06:24:00,46.9,-2.9,25.04,NNE,12,4.0,8.7,12,0.00,,,-99.99,FreeWX 2.04,2013-03-28 12:24:00,
2013-03-28 06:29:00,46.9,-2.9,25.04,North,1,5.0,8.7,12,0.00,,,-99.99,FreeWX 2.04,2013-03-28 12:29:00,
2013-03-28 06:34:00,46.9,-2.9,25.04,North,5,4.0,6.7,12,0.00,,,-99.99,FreeWX 2.04,2013-03-28 12:34:00,
2013-03-28 06:39:00,47.1,-2.9,25.04,North,1,4.0,7.8,12,0.00,,,-99.99,FreeWX 2.04,2013-03-28 12:39:00,
2013-03-28 06:44:00,47.1,-2.9,25.04,North,356,6.0,7.8,12,0.00,,,-99.99,FreeWX 2.04,2013-03-28 12:44:00,
2013-03-28 06:49:00,46.9,-2.9,25.04,North,4,5.0,8.3,12,0.00,,,-99.99,FreeWX 2.04,2013-03-28 12:49:00,
2013-03-28 06:54:00,46.9,-2.9,25.04,North,9,4.0,6.9,12,0.00,,,-99.99,FreeWX 2.04,2013-03-28 12:54:00,
2013-03-28 06:59:00,46.9,-2.9,25.04,North,4,4.0,6.7,12,0.00,,,-99.99,FreeWX 2.04,2013-03-28 12:59:00,
2013-03-28 07:04:00,46.4,-3.5,25.04,North,2,3.0,4.5,12,0.00,,,-99.99,FreeWX 2.04,2013-03-28 13:04:00,
2013-03-28 07:09:00,46.0,-3.6,25.04,North,4,2.0,4.0,12,0.00,,,-99.99,FreeWX 2.04,2013-03-28 13:09:00,
2013-03-28 07:14:00,45.0,-4.5,25.04,North,4,2.0,4.5,12,0.00,,,-99.99,FreeWX 2.04,2013-03-28 13:14:00,
2013-03-28 07:19:00,44.4,-0.2,25.04,North,4,2.0,3.6,15,0.00,,,-99.99,FreeWX 2.04,2013-03-28 13:19:00,
2013-03-28 07:24:00,45.1,0.3,25.04,North,5,2.0,4.9,15,0.00,,,-99.99,FreeWX 2.04,2013-03-28 13:24:00,
2013-03-28 07:29:00,45.1,0.3,25.04,North,7,4.0,4.9,15,0.00,,,-99.99,FreeWX 2.04,2013-03-28 13:29:00,
2013-03-28 07:34:00,44.2,-0.4,25.04,North,8,4.0,5.4,15,0.00,,,-99.99,FreeWX 2.04,2013-03-28 13:34:00,
2013-03-28 07:39:00,43.9,-0.8,25.07,North,10,4.0,6.3,15,0.00,,,-99.99,FreeWX 2.04,2013-03-28 13:39:00,
2013-03-28 07:44:00,43.9,-0.8,25.07,NNE,16,4.0,5.8,15,0.00,,,-99.99,FreeWX 2.04,2013-03-28 13:44:00,
2013-03-28 07:49:00,45.1,0.3,25.07,NNE,17,5.0,6.3,15,0.00,,,-99.99,FreeWX 2.04,2013-03-28 13:49:00,
2013-03-28 07:54:00,46.9,0.3,25.07,North,4,5.0,7.8,14,0.00,,,-99.99,FreeWX 2.04,2013-03-28 13:54:00,
2013-03-28 07:59:00,47.5,0.7,25.07,North,350,5.0,8.7,14,0.00,,,-99.99,FreeWX 2.04,2013-03-28 13:59:00,
2013-03-28 08:04:00,47.3,-4.5,25.07,NNW,345,6.0,11.0,11,0.00,,,-99.99,FreeWX 2.04,2013-03-28 14:04:00,
2013-03-28 08:09:00,47.7,-4.2,25.07,NNW,347,6.0,11.0,11,0.00,,,-99.99,FreeWX 2.04,2013-03-28 14:09:00,
2013-03-28 08:14:00,47.8,-4.0,25.07,North,349,7.0,11.2,11,0.00,,,-99.99,FreeWX 2.04,2013-03-28 14:14:00,
2013-03-28 08:19:00,47.7,-4.2,25.07,North,6,6.0,10.1,11,0.00,,,-99.99,FreeWX 2.04,2013-03-28 14:19:00,
2013-03-28 08:24:00,47.7,-4.2,25.07,NNE,31,4.0,6.3,11,0.00,,,-99.99,FreeWX 2.04,2013-03-28 14:24:00,
2013-03-28 08:29:00,47.7,0.9,25.07,NE,46,3.0,4.9,14,0.00,,,-99.99,FreeWX 2.04,2013-03-28 14:29:00,
2013-03-28 08:35:00,47.7,0.9,25.07,NE,51,3.0,5.4,14,0.00,,,-99.99,FreeWX 2.04,2013-03-28 14:35:00,
2013-03-28 08:40:00,47.8,1.0,25.07,NE,51,3.0,5.4,14,0.00,,,-99.99,FreeWX 2.04,2013-03-28 14:40:00,
2013-03-28 08:45:00,48.2,-3.8,25.07,NE,52,3.0,5.8,11,0.00,,,-99.99,FreeWX 2.04,2013-03-28 14:45:00,
2013-03-28 08:50:00,48.6,-3.5,25.07,NE,52,3.0,5.4,11,0.00,,,-99.99,FreeWX 2.04,2013-03-28 14:50:00,
2013-03-28 08:55:00,48.7,-3.5,25.07,NE,52,2.0,4.0,11,0.00,,,-99.99,FreeWX 2.04,2013-03-28 14:55:00,
2013-03-28 09:00:00,48.9,-3.3,25.07,ENE,57,2.0,4.9,11,0.00,,,-99.99,FreeWX 2.04,2013-03-28 15:00:00,
2013-03-28 09:05:00,49.3,-2.9,25.07,ENE,61,3.0,5.8,11,0.00,,,-99.99,FreeWX 2.04,2013-03-28 15:05:00,
2013-03-28 09:10:00,49.8,-2.6,25.07,NE,53,4.0,6.3,11,0.00,,,-99.99,FreeWX 2.04,2013-03-28 15:10:00,
2013-03-28 09:15:00,50.7,-1.8,25.07,NNE,33,5.0,7.8,11,0.00,,,-99.99,FreeWX 2.04,2013-03-28 15:15:00,
2013-03-28 09:20:00,51.8,-0.9,25.07,NNE,13,5.0,9.6,11,0.00,,,-99.99,FreeWX 2.04,2013-03-28 15:20:00,
2013-03-28 09:25:00,51.6,-1.1,25.07,North,355,6.0,9.2,11,0.00,,,-99.99,FreeWX 2.04,2013-03-28 15:25:00,
2013-03-28 09:30:00,52.2,-0.8,25.07,North,356,6.0,11.0,11,0.00,,,-99.99,FreeWX 2.04,2013-03-28 15:30:00,
2013-03-28 09:35:00,52.5,-0.4,25.07,North,7,7.0,9.6,11,0.00,,,-99.99,FreeWX 2.04,2013-03-28 15:35:00,
2013-03-28 09:40:00,53.1,-99.9,25.07,NNE,12,6.0,9.2,-999,0.00,,,-99.99,FreeWX 2.04,2013-03-28 15:40:00,
2013-03-28 09:45:00,54.1,-99.9,25.07,NNE,12,7.0,11.6,-999,0.00,,,-99.99,FreeWX 2.04,2013-03-28 15:45:00,
2013-03-28 09:50:00,54.5,-99.9,25.07,North,11,8.0,13.4,-999,0.00,,,-99.99,FreeWX 2.04,2013-03-28 15:50:00,
2013-03-28 09:55:00,54.5,-99.9,25.07,NNE,13,9.0,13.4,-999,0.00,,,-99.99,FreeWX 2.04,2013-03-28 15:55:00,
2013-03-28 10:00:00,55.4,-99.9,25.07,NNE,17,8.0,11.2,-999,0.00,,,-99.99,FreeWX 2.04,2013-03-28 16:00:00,
2013-03-28 10:05:00,55.4,-99.9,25.07,NNE,17,7.0,10.5,-999,0.00,,,-99.99,FreeWX 2.04,2013-03-28 16:05:00,
2013-03-28 10:10:00,55.6,-99.9,25.07,NNE,15,6.0,9.2,-999,0.00,,,-99.99,FreeWX 2.04,2013-03-28 16:10:00,
2013-03-28 10:15:00,56.3,-99.9,25.07,NNE,23,6.0,9.6,-999,0.00,,,-99.99,FreeWX 2.04,2013-03-28 16:15:00,
2013-03-28 10:20:00,56.5,-99.9,25.07,North,10,6.0,9.2,-999,0.00,,,-99.99,FreeWX 2.04,2013-03-28 16:20:00,
2013-03-28 10:25:00,56.8,-99.9,25.07,North,1,6.0,10.5,-999,0.00,,,-99.99,FreeWX 2.04,2013-03-28 16:25:00,
2013-03-28 10:30:00,57.6,-99.9,25.07,North,8,6.0,8.7,-999,0.00,,,-99.99,FreeWX 2.04,2013-03-28 16:30:00,
2013-03-28 10:35:00,57.7,-99.9,25.07,North,3,6.0,9.2,-999,0.00,,,-99.99,FreeWX 2.04,2013-03-28 16:35:00,
2013-03-28 10:40:00,57.7,-99.9,25.07,North,4,6.0,8.3,-999,0.00,,,-99.99,FreeWX 2.04,2013-03-28 16:40:00,
2013-03-28 10:45:00,58.1,-99.9,25.07,NNE,17,4.0,7.4,-999,0.00,,,-99.99,FreeWX 2.04,2013-03-28 16:45:00,
2013-03-28 10:50:00,59.2,-99.9,25.07,NE,38,4.0,6.7,-999,0.00,,,-99.99,FreeWX 2.04,2013-03-28 16:50:00,
2013-03-28 10:55:00,59.2,-99.9,25.07,NE,56,4.0,9.6,-999,0.00,,,-99.99,FreeWX 2.04,2013-03-28 16:55:00,
2013-03-28 11:00:00,59.9,-99.9,25.07,North,359,4.0,6.9,-999,0.00,,,-99.99,FreeWX 2.04,2013-03-28 17:00:00,
2013-03-28 11:05:00,60.4,-99.9,25.07,NNW,342,3.0,7.4,-999,0.00,,,-99.99,FreeWX 2.04,2013-03-28 17:05:00,
2013-03-28 11:10:00,61.2,-99.9,25.07,North,6,3.0,6.3,-999,0.00,,,-99.99,FreeWX 2.04,2013-03-28 17:10:00,
2013-03-28 11:15:00,61.0,-99.9,25.07,North,3,4.0,8.7,-999,0.00,,,-99.99,FreeWX 2.04,2013-03-28 17:15:00,
2013-03-28 11:20:00,61.3,-99.9,25.10,North,5,3.0,5.8,-999,0.00,,,-99.99,FreeWX 2.04,2013-03-28 17:20:00,
2013-03-28 11:25:00,61.9,-99.9,25.10,NNE,33,2.0,4.9,-999,0.00,,,-99.99,FreeWX 2.04,2013-03-28 17:25:00,
2013-03-28 11:30:00,62.2,-99.9,25.10,NE,46,2.0,5.4,-999,0.00,,,-99.99,FreeWX 2.04,2013-03-28 17:30:00,
2013-03-28 11:35:00,61.9,-99.9,25.07,NE,38,3.0,6.7,-999,0.00,,,-99.99,FreeWX 2.04,2013-03-28 17:35:00,
2013-03-28 11:40:00,61.5,-99.9,25.07,WNW,292,4.0,6.9,-999,0.00,,,-99.99,FreeWX 2.04,2013-03-28 17:40:00,
2013-03-28 11:45:00,62.8,-99.9,25.07,West,280,3.0,5.8,-999,0.00,,,-99.99,FreeWX 2.04,2013-03-28 17:45:00,
2013-03-28 11:50:00,62.4,-99.9,25.07,West,280,3.0,6.9,-999,0.00,,,-99.99,FreeWX 2.04,2013-03-28 17:50:00,
2013-03-28 11:55:00,62.8,-99.9,25.07,West,280,2.0,4.5,-999,0.00,,,-99.99,FreeWX 2.04,2013-03-28 17:55:00,
2013-03-28 12:00:00,63.0,-99.9,25.07,West,280,2.0,4.9,-999,0.00,,,-99.99,FreeWX 2.04,2013-03-28 18:00:00,
2013-03-28 12:05:00,63.7,-99.9,25.07,West,281,2.0,5.8,-999,0.00,,,-99.99,FreeWX 2.04,2013-03-28 18:05:00,
2013-03-28 12:10:00,63.7,-99.9,25.07,West,265,3.0,7.4,-999,0.00,,,-99.99,FreeWX 2.04,2013-03-28 18:10:00,
2013-03-28 12:16:00,64.0,-99.9,25.07,South,169,5.0,8.7,-999,0.00,,,-99.99,FreeWX 2.04,2013-03-28 18:16:00,
2013-03-28 12:21:00,64.2,-99.9,25.07,SE,131,5.0,8.7,-999,0.00,,,-99.99,FreeWX 2.04,2013-03-28 18:21:00,
2013-03-28 12:26:00,64.4,-99.9,25.07,SSE,148,4.0,7.8,-999,0.00,,,-99.99,FreeWX 2.04,2013-03-28 18:26:00,
2013-03-28 12:31:00,64.9,-99.9,25.07,South,181,4.0,9.2,-999,0.00,,,-99.99,FreeWX 2.04,2013-03-28 18:31:00,
2013-03-28 12:36:00,64.8,-99.9,25.07,South,177,6.0,12.5,-999,0.00,,,-99.99,FreeWX 2.04,2013-03-28 18:36:00,
2013-03-28 12:41:00,64.6,-99.9,25.07,South,188,6.0,9.2,-999,0.00,,,-99.99,FreeWX 2.04,2013-03-28 18:41:00,
2013-03-28 12:46:00,65.3,-99.9,25.07,SW,230,7.0,12.1,-999,0.00,,,-99.99,FreeWX 2.04,2013-03-28 18:46:00,
2013-03-28 12:51:00,64.8,-99.9,25.07,WSW,248,7.0,12.1,-999,0.00,,,-99.99,FreeWX 2.04,2013-03-28 18:51:00,
2013-03-28 12:56:00,65.7,-99.9,25.07,WSW,246,6.0,12.1,-999,0.00,,,-99.99,FreeWX 2.04,2013-03-28 18:56:00,
2013-03-28 13:01:00,65.5,-99.9,25.07,SW,219,7.0,11.6,-999,0.00,,,-99.99,FreeWX 2.04,2013-03-28 19:01:00,
2013-03-28 13:06:00,66.2,-99.9,25.07,SSW,198,6.0,9.2,-999,0.00,,,-99.99,FreeWX 2.04,2013-03-28 19:06:00,
2013-03-28 13:11:00,65.5,-99.9,25.07,SSW,212,5.0,13.9,-999,0.00,,,-99.99,FreeWX 2.04,2013-03-28 19:11:00,
2013-03-28 13:16:00,65.5,-99.9,25.07,WSW,246,6.0,11.0,-999,0.00,,,-99.99,FreeWX 2.04,2013-03-28 19:16:00,
2013-03-28 13:21:00,66.6,-99.9,25.07,West,263,5.0,9.6,-999,0.00,,,-99.99,FreeWX 2.04,2013-03-28 19:21:00,
2013-03-28 13:26:00,66.2,-99.9,25.07,SW,224,6.0,13.0,-999,0.00,,,-99.99,FreeWX 2.04,2013-03-28 19:26:00,
2013-03-28 13:31:00,67.1,-99.9,25.07,South,186,6.0,7.8,-999,0.00,,,-99.99,FreeWX 2.04,2013-03-28 19:31:00,
2013-03-28 13:36:00,66.6,-99.9,25.04,South,185,5.0,12.1,-999,0.00,,,-99.99,FreeWX 2.04,2013-03-28 19:36:00,
2013-03-28 13:51:00,66.9,-99.9,25.04,South,189,8.0,12.5,-999,0.00,,,-99.99,FreeWX 2.04,2013-03-28 19:51:00,
2013-03-28 14:07:00,66.7,-99.9,25.04,SW,229,5.0,9.2,-999,0.00,,,-99.99,FreeWX 2.04,2013-03-28 20:07:00,
2013-03-28 14:12:00,67.5,-99.9,25.04,SW,234,5.0,12.1,-999,0.00,,,-99.99,FreeWX 2.04,2013-03-28 20:12:00,
2013-03-28 14:22:00,66.7,-99.9,25.04,South,184,11.0,16.8,-999,0.00,,,-99.99,FreeWX 2.04,2013-03-28 20:22:00,
2013-03-28 14:27:00,67.8,-99.9,25.04,South,175,8.0,13.9,-999,0.00,,,-99.99,FreeWX 2.04,2013-03-28 20:27:00,
2013-03-28 14:32:00,67.8,-99.9,25.04,South,179,9.0,17.2,-999,0.00,,,-99.99,FreeWX 2.04,2013-03-28 20:32:00,
2013-03-28 14:37:00,67.5,-99.9,25.04,South,181,10.0,15.2,-999,0.00,,,-99.99,FreeWX 2.04,2013-03-28 20:37:00,
2013-03-28 14:42:00,67.5,-99.9,25.04,South,175,8.0,13.0,-999,0.00,,,-99.99,FreeWX 2.04,2013-03-28 20:42:00,
2013-03-28 14:48:00,67.5,-99.9,25.04,SSE,157,7.0,13.4,-999,0.00,,,-99.99,FreeWX 2.04,2013-03-28 20:48:00,
2013-03-28 14:53:00,67.1,-99.9,25.04,SSE,159,7.0,14.8,-999,0.00,,,-99.99,FreeWX 2.04,2013-03-28 20:53:00,
2013-03-28 14:58:00,67.1,-99.9,25.04,South,176,6.0,8.7,-999,0.00,,,-99.99,FreeWX 2.04,2013-03-28 20:58:00,
2013-03-28 15:03:00,68.2,-99.9,25.04,SE,146,5.0,9.2,-999,0.00,,,-99.99,FreeWX 2.04,2013-03-28 21:03:00,
2013-03-28 15:08:00,67.5,-99.9,25.04,SE,142,5.0,11.6,-999,0.00,,,-99.99,FreeWX 2.04,2013-03-28 21:08:00,
2013-03-28 15:13:00,67.1,-99.9,25.04,West,259,6.0,11.0,-999,0.00,,,-99.99,FreeWX 2.04,2013-03-28 21:13:00,
2013-03-28 15:18:00,67.3,-99.9,25.04,NW,311,6.0,8.3,-999,0.00,,,-99.99,FreeWX 2.04,2013-03-28 21:18:00,
2013-03-28 15:23:00,66.7,-99.9,25.01,WNW,290,6.0,11.6,-999,0.00,,,-99.99,FreeWX 2.04,2013-03-28 21:23:00,
2013-03-28 15:28:00,66.9,-99.9,25.01,WSW,242,6.0,8.7,-999,0.00,,,-99.99,FreeWX 2.04,2013-03-28 21:28:00,
2013-03-28 15:33:00,67.8,-99.9,25.01,SW,228,6.0,11.2,-999,0.00,,,-99.99,FreeWX 2.04,2013-03-28 21:33:00,
2013-03-28 15:38:00,68.7,-99.9,25.01,SSW,212,8.0,14.3,-999,0.00,,,-99.99,FreeWX 2.04,2013-03-28 21:38:00,
2013-03-28 15:43:00,68.0,-99.9,25.01,SW,215,10.0,16.8,-999,0.00,,,-99.99,FreeWX 2.04,2013-03-28 21:43:00,
2013-03-28 15:48:00,68.2,-99.9,25.01,SSW,200,9.0,13.4,-999,0.00,,,-99.99,FreeWX 2.04,2013-03-28 21:48:00,
2013-03-28 15:53:00,67.8,-99.9,25.01,SSE,168,9.0,14.3,-999,0.00,,,-99.99,FreeWX 2.04,2013-03-28 21:53:00,
2013-03-28 15:58:00,68.0,-99.9,25.01,South,186,8.0,11.6,-999,0.00,,,-99.99,FreeWX 2.04,2013-03-28 21:58:00,
2013-03-28 16:08:00,67.8,-99.9,25.01,West,262,5.0,10.1,-999,0.00,,,-99.99,FreeWX 2.04,2013-03-28 22:08:00,
2013-03-28 16:13:00,68.0,-99.9,25.01,WSW,250,6.0,11.6,-999,0.00,,,-99.99,FreeWX 2.04,2013-03-28 22:13:00,
2013-03-28 16:18:00,68.0,-99.9,25.01,SSW,213,6.0,11.6,-999,0.00,,,-99.99,FreeWX 2.04,2013-03-28 22:18:00,
2013-03-28 16:23:00,67.5,-99.9,25.01,SW,227,7.0,12.1,-999,0.00,,,-99.99,FreeWX 2.04,2013-03-28 22:23:00,
2013-03-28 16:28:00,67.1,-99.9,25.01,SSW,213,7.0,10.5,-999,0.00,,,-99.99,FreeWX 2.04,2013-03-28 22:28:00,
2013-03-28 16:33:00,68.2,-99.9,25.01,South,187,6.0,11.0,-999,0.00,,,-99.99,FreeWX 2.04,2013-03-28 22:33:00,
2013-03-28 16:39:00,68.7,-99.9,25.01,South,182,6.0,10.5,-999,0.00,,,-99.99,FreeWX 2.04,2013-03-28 22:39:00,
2013-03-28 16:44:00,67.5,-99.9,25.01,SSW,200,6.0,12.1,-999,0.00,,,-99.99,FreeWX 2.04,2013-03-28 22:44:00,
2013-03-28 16:49:00,68.7,-99.9,25.01,WSW,254,6.0,9.6,-999,0.00,,,-99.99,FreeWX 2.04,2013-03-28 22:49:00,
2013-03-28 16:54:00,68.4,-99.9,25.01,WSW,249,6.0,15.4,-999,0.00,,,-99.99,FreeWX 2.04,2013-03-28 22:54:00,
2013-03-28 16:59:00,68.2,-99.9,25.01,SW,227,9.0,15.2,-999,0.00,,,-99.99,FreeWX 2.04,2013-03-28 22:59:00,
2013-03-28 17:04:00,67.1,-99.9,25.01,WSW,237,11.0,14.8,-999,0.00,,,-99.99,FreeWX 2.04,2013-03-28 23:04:00,
2013-03-28 17:09:00,67.1,-99.9,25.01,WSW,237,10.0,13.0,-999,0.00,,,-99.99,FreeWX 2.04,2013-03-28 23:09:00,
2013-03-28 17:14:00,67.1,-99.9,25.01,SW,217,9.0,12.5,-999,0.00,,,-99.99,FreeWX 2.04,2013-03-28 23:14:00,
2013-03-28 17:19:00,66.6,-99.9,25.01,SW,219,8.0,11.6,-999,0.00,,,-99.99,FreeWX 2.04,2013-03-28 23:19:00,
2013-03-28 17:24:00,66.4,-99.9,25.01,SW,236,8.0,11.2,-999,0.00,,,-99.99,FreeWX 2.04,2013-03-28 23:24:00,
2013-03-28 17:29:00,66.4,-99.9,25.01,WSW,241,8.0,10.1,-999,0.00,,,-99.99,FreeWX 2.04,2013-03-28 23:29:00,
2013-03-28 17:34:00,66.6,-99.9,25.01,WSW,242,7.0,9.2,-999,0.00,,,-99.99,FreeWX 2.04,2013-03-28 23:34:00,
2013-03-28 17:39:00,67.1,-99.9,25.01,SW,236,7.0,10.5,-999,0.00,,,-99.99,FreeWX 2.04,2013-03-28 23:39:00,
2013-03-28 17:44:00,67.3,-99.9,25.01,SW,234,7.0,10.1,-999,0.00,,,-99.99,FreeWX 2.04,2013-03-28 23:44:00,
2013-03-28 17:49:00,67.5,-99.9,25.01,WSW,242,6.0,9.2,-999,0.00,,,-99.99,FreeWX 2.04,2013-03-28 23:49:00,
2013-03-28 17:54:00,67.5,-99.9,25.01,WSW,254,5.0,7.8,-999,0.00,,,-99.99,FreeWX 2.04,2013-03-28 23:54:00,
2013-03-28 17:59:00,67.3,-99.9,25.01,WSW,258,5.0,8.3,-999,0.00,,,-99.99,FreeWX 2.04,2013-03-28 23:59:00,
2013-03-28 18:04:00,67.1,-99.9,25.01,WSW,247,6.0,8.3,-999,0.00,,,-99.99,FreeWX 2.04,2013-03-29 00:04:00,
2013-03-28 18:09:00,66.9,-99.9,25.01,WSW,249,6.0,8.7,-999,0.00,,,-99.99,FreeWX 2.04,2013-03-29 00:09:00,
2013-03-28 18:14:00,66.9,-99.9,25.01,WSW,256,5.0,8.3,-999,0.00,,,-99.99,FreeWX 2.04,2013-03-29 00:14:00,
2013-03-28 18:19:00,67.1,-99.9,25.01,West,262,3.0,5.4,-999,0.00,,,-99.99,FreeWX 2.04,2013-03-29 00:19:00,
2013-03-28 18:24:00,66.9,-99.9,25.01,NW,310,2.0,5.8,-999,0.00,,,-99.99,FreeWX 2.04,2013-03-29 00:24:00,
2013-03-28 18:29:00,66.9,-99.9,25.01,North,351,2.0,3.1,-999,0.00,,,-99.99,FreeWX 2.04,2013-03-29 00:29:00,
2013-03-28 18:34:00,66.9,-99.9,25.01,North,2,2.0,5.8,-999,0.00,,,-99.99,FreeWX 2.04,2013-03-29 00:34:00,
2013-03-28 18:39:00,66.9,-99.9,25.01,NNE,25,4.0,5.4,-999,0.00,,,-99.99,FreeWX 2.04,2013-03-29 00:39:00,
2013-03-28 18:44:00,66.7,-99.9,25.01,NE,35,4.0,5.8,-999,0.00,,,-99.99,FreeWX 2.04,2013-03-29 00:44:00,
2013-03-28 18:49:00,66.6,-99.9,25.01,NE,37,4.0,4.5,-999,0.00,,,-99.99,FreeWX 2.04,2013-03-29 00:49:00,
2013-03-28 18:54:00,66.4,-99.9,25.01,NE,37,3.0,6.3,-999,0.00,,,-99.99,FreeWX 2.04,2013-03-29 00:54:00,
2013-03-28 18:59:00,65.7,-99.9,25.01,NE,41,4.0,5.8,-999,0.00,,,-99.99,FreeWX 2.04,2013-03-29 00:59:00,
2013-03-28 19:04:00,65.1,-99.9,25.01,NE,46,4.0,4.5,-999,0.00,,,-99.99,FreeWX 2.04,2013-03-29 01:04:00,
2013-03-28 19:09:00,64.6,-99.9,25.01,NE,46,2.0,3.6,-999,0.00,,,-99.99,FreeWX 2.04,2013-03-29 01:09:00,
2013-03-28 19:14:00,64.0,-99.9,25.01,NE,46,2.0,4.9,-999,0.00,,,-99.99,FreeWX 2.04,2013-03-29 01:14:00,
2013-03-28 19:19:00,63.7,-99.9,25.01,NE,47,4.0,5.8,-999,0.00,,,-99.99,FreeWX 2.04,2013-03-29 01:19:00,
2013-03-28 19:24:00,63.3,-99.9,25.01,NE,48,4.0,5.4,-999,0.00,,,-99.99,FreeWX 2.04,2013-03-29 01:24:00,
2013-03-28 19:29:00,63.5,-99.9,25.01,ENE,59,4.0,7.4,-999,0.00,,,-99.99,FreeWX 2.04,2013-03-29 01:29:00,
2013-03-28 19:34:00,63.9,-99.9,25.01,East,85,5.0,7.8,-999,0.00,,,-99.99,FreeWX 2.04,2013-03-29 01:34:00,
2013-03-28 19:39:00,63.1,-99.9,25.01,East,96,5.0,6.3,-999,0.00,,,-99.99,FreeWX 2.04,2013-03-29 01:39:00,
2013-03-28 19:44:00,62.6,-99.9,25.01,East,90,4.0,5.8,-999,0.00,,,-99.99,FreeWX 2.04,2013-03-29 01:44:00,
2013-03-28 19:49:00,62.1,-99.9,25.01,East,86,4.0,6.7,-999,0.00,,,-99.99,FreeWX 2.04,2013-03-29 01:49:00,
2013-03-28 19:54:00,61.7,-99.9,25.04,East,81,4.0,6.7,-999,0.00,,,-99.99,FreeWX 2.04,2013-03-29 01:54:00,
2013-03-28 19:59:00,61.3,-99.9,25.04,ENE,78,4.0,5.4,-999,0.00,,,-99.99,FreeWX 2.04,2013-03-29 01:59:00,
2013-03-28 20:04:00,61.0,-99.9,25.04,ENE,78,4.0,4.9,-999,0.00,,,-99.99,FreeWX 2.04,2013-03-29 02:04:00,
2013-03-28 20:09:00,60.6,-99.9,25.04,ENE,78,3.0,4.5,-999,0.00,,,-99.99,FreeWX 2.04,2013-03-29 02:09:00,
2013-03-28 20:14:00,60.4,-99.9,25.04,ENE,78,3.0,4.5,-999,0.00,,,-99.99,FreeWX 2.04,2013-03-29 02:14:00,
2013-03-28 20:19:00,60.4,-99.9,25.04,East,83,2.0,5.4,-999,0.00,,,-99.99,FreeWX 2.04,2013-03-29 02:19:00,
2013-03-28 20:24:00,60.8,-99.9,25.04,ESE,110,4.0,8.7,-999,0.00,,,-99.99,FreeWX 2.04,2013-03-29 02:24:00,
2013-03-28 20:29:00,61.0,-99.9,25.04,SE,128,5.0,8.3,-999,0.00,,,-99.99,FreeWX 2.04,2013-03-29 02:29:00,
2013-03-28 20:34:00,60.8,-99.9,25.04,SE,129,5.0,7.8,-999,0.00,,,-99.99,FreeWX 2.04,2013-03-29 02:34:00,
2013-03-28 20:39:00,60.6,-99.9,25.04,SE,131,5.0,8.3,-999,0.00,,,-99.99,FreeWX 2.04,2013-03-29 02:39:00,
2013-03-28 20:44:00,60.4,-99.9,25.04,SE,135,6.0,10.5,-999,0.00,,,-99.99,FreeWX 2.04,2013-03-29 02:44:00,
2013-03-28 20:49:00,60.1,-99.9,25.04,SE,139,7.0,10.5,-999,0.00,,,-99.99,FreeWX 2.04,2013-03-29 02:49:00,
2013-03-28 20:54:00,59.9,-99.9,25.04,SE,141,7.0,10.5,-999,0.00,,,-99.99,FreeWX 2.04,2013-03-29 02:54:00,
2013-03-28 20:59:00,59.7,-99.9,25.04,SE,140,7.0,10.5,-999,0.00,,,-99.99,FreeWX 2.04,2013-03-29 02:59:00,
2013-03-28 21:04:00,59.7,-99.9,25.04,SE,138,7.0,11.0,-999,0.00,,,-99.99,FreeWX 2.04,2013-03-29 03:04:00,
2013-03-28 21:09:00,59.7,-99.9,25.04,SE,137,7.0,11.0,-999,0.00,,,-99.99,FreeWX 2.04,2013-03-29 03:09:00,
2013-03-28 21:14:00,59.4,-99.9,25.04,SE,140,7.0,11.2,-999,0.00,,,-99.99,FreeWX 2.04,2013-03-29 03:14:00,
2013-03-28 21:19:00,59.4,-99.9,25.04,SE,142,7.0,11.0,-999,0.00,,,-99.99,FreeWX 2.04,2013-03-29 03:19:00,
2013-03-28 21:24:00,59.4,-99.9,25.04,SE,144,8.0,10.1,-999,0.00,,,-99.99,FreeWX 2.04,2013-03-29 03:24:00,
2013-03-28 21:29:00,59.0,-99.9,25.04,SE,145,7.0,10.1,-999,0.00,,,-99.99,FreeWX 2.04,2013-03-29 03:29:00,
2013-03-28 21:34:00,59.0,-99.9,25.04,SE,143,6.0,8.3,-999,0.00,,,-99.99,FreeWX 2.04,2013-03-29 03:34:00,
2013-03-28 21:39:00,59.2,-99.9,25.04,SE,139,6.0,8.3,-999,0.00,,,-99.99,FreeWX 2.04,2013-03-29 03:39:00,
2013-03-28 21:44:00,59.0,-99.9,25.04,SE,136,6.0,9.2,-999,0.00,,,-99.99,FreeWX 2.04,2013-03-29 03:44:00,
2013-03-28 21:49:00,59.2,-99.9,25.04,SE,134,6.0,7.4,-999,0.00,,,-99.99,FreeWX 2.04,2013-03-29 03:49:00,
2013-03-28 21:54:00,59.2,-99.9,25.04,SE,135,5.0,6.9,-999,0.00,,,-99.99,FreeWX 2.04,2013-03-29 03:54:00,
2013-03-28 21:59:00,59.2,-99.9,25.04,SE,136,4.0,5.4,-999,0.00,,,-99.99,FreeWX 2.04,2013-03-29 03:59:00,
2013-03-28 22:04:00,58.8,-99.9,25.04,SE,134,3.0,5.8,-999,0.00,,,-99.99,FreeWX 2.04,2013-03-29 04:04:00,
2013-03-28 22:09:00,58.8,-99.9,25.04,SE,136,4.0,6.7,-999,0.00,,,-99.99,FreeWX 2.04,2013-03-29 04:09:00,
2013-03-28 22:14:00,59.0,-99.9,25.04,SE,132,5.0,7.4,-999,0.00,,,-99.99,FreeWX 2.04,2013-03-29 04:14:00,
2013-03-28 22:19:00,59.2,-99.9,25.04,ESE,121,5.0,7.8,-999,0.00,,,-99.99,FreeWX 2.04,2013-03-29 04:19:00,
2013-03-28 22:24:00,58.8,-99.9,25.04,ESE,118,5.0,7.8,-999,0.00,,,-99.99,FreeWX 2.04,2013-03-29 04:24:00,
2013-03-28 22:29:00,58.8,-99.9,25.04,ESE,120,5.0,8.7,-999,0.00,,,-99.99,FreeWX 2.04,2013-03-29 04:29:00,
2013-03-28 22:34:00,58.6,-99.9,25.04,ESE,116,5.0,7.4,-999,0.00,,,-99.99,FreeWX 2.04,2013-03-29 04:34:00,
2013-03-28 22:39:00,58.6,-99.9,25.07,ESE,121,4.0,4.9,-999,0.00,,,-99.99,FreeWX 2.04,2013-03-29 04:39:00,
2013-03-28 22:44:00,58.5,-99.9,25.07,SE,130,4.0,5.8,-999,0.00,,,-99.99,FreeWX 2.04,2013-03-29 04:44:00,
2013-03-28 22:49:00,57.9,-99.9,25.07,SE,133,4.0,5.4,-999,0.00,,,-99.99,FreeWX 2.04,2013-03-29 04:49:00,
2013-03-28 22:54:00,57.2,-99.9,25.04,SE,136,1.0,3.6,-999,0.00,,,-99.99,FreeWX 2.04,2013-03-29 04:54:00,
2013-03-28 22:59:00,57.9,-99.9,25.04,SE,127,1.0,6.9,-999,0.00,,,-99.99,FreeWX 2.04,2013-03-29 04:59:00,
2013-03-28 23:04:00,60.3,-99.9,25.04,East,101,5.0,15.4,-999,0.00,,,-99.99,FreeWX 2.04,2013-03-29 05:04:00,
2013-03-28 23:09:00,60.6,-99.9,25.07,East,84,7.0,11.6,-999,0.00,,,-99.99,FreeWX 2.04,2013-03-29 05:09:00,
2013-03-28 23:14:00,61.0,-99.9,25.07,East,80,6.0,12.1,-999,0.00,,,-99.99,FreeWX 2.04,2013-03-29 05:14:00,
2013-03-28 23:19:00,61.2,-99.9,25.07,East,79,7.0,10.5,-999,0.00,,,-99.99,FreeWX 2.04,2013-03-29 05:19:00,
2013-03-28 23:24:00,60.6,-99.9,25.07,ENE,71,7.0,8.3,-999,0.00,,,-99.99,FreeWX 2.04,2013-03-29 05:24:00,
2013-03-28 23:29:00,60.4,-99.9,25.07,ENE,66,6.0,9.6,-999,0.00,,,-99.99,FreeWX 2.04,2013-03-29 05:29:00,
2013-03-28 23:34:00,60.4,-99.9,25.07,ENE,70,7.0,10.5,-999,0.00,,,-99.99,FreeWX 2.04,2013-03-29 05:34:00,
2013-03-28 23:40:00,60.3,-99.9,25.07,ENE,72,7.0,9.6,-999,0.00,,,-99.99,FreeWX 2.04,2013-03-29 05:40:00,
2013-03-28 23:45:00,59.9,-99.9,25.07,ENE,71,6.0,9.6,-999,0.00,,,-99.99,FreeWX 2.04,2013-03-29 05:45:00,
2013-03-28 23:50:00,60.4,-99.9,25.07,ENE,76,7.0,11.6,-999,0.00,,,-99.99,FreeWX 2.04,2013-03-29 05:50:00,
2013-03-28 23:55:00,60.4,-99.9,25.07,ENE,77,8.0,11.0,-999,0.00,,,-99.99,FreeWX 2.04,2013-03-29 05:55:00,